DLH220 EGCC-EDDF

Flight info

Callsign DLH220
Flight time 1h 16m
Altitude 35000
Route DESIG L603 DOLAS DCT NAVPI DCT NOLRU DCT DIXAT DIXAT1A
Aircraft B789/H-SDE1E2E3FGHIJ2J3J4J5M1RWXY/LB1D1

Departure

Time 2026-05-04 05:09
Airport Manchester Airport (EGCC)

Arrival

Time 2026-05-04 06:26
Airport Frankfurt Main Airport (EDDF)
Time Latitude Longitude Altitude Speed Heading
2026-05-04 04:56 53.35879 -2.27548 251 ft 0 kts 95°
2026-05-04 05:01 53.35881 -2.27580 252 ft 7 kts 95°
2026-05-04 05:01 53.35908 -2.27641 252 ft 7 kts 175°
2026-05-04 05:01 53.35917 -2.27640 252 ft 0 kts 186°
2026-05-04 05:06 53.35487 -2.28127 259 ft 25 kts 200°
2026-05-04 05:06 53.35306 -2.28207 259 ft 28 kts 205°
2026-05-04 05:06 53.35167 -2.28433 262 ft 28 kts 232°
2026-05-04 05:07 53.35046 -2.28684 265 ft 27 kts 228°
2026-05-04 05:07 53.34967 -2.28750 266 ft 5 kts 147°
2026-05-04 05:07 53.34929 -2.28693 266 ft 9 kts 138°
2026-05-04 05:09 53.37902 -2.22017 2448 ft 173 kts 55°
2026-05-04 05:09 53.38656 -2.20268 2845 ft 193 kts 53°
2026-05-04 05:10 53.39470 -2.18461 3391 ft 206 kts 50°
2026-05-04 05:10 53.40428 -2.16451 3658 ft 236 kts 51°
2026-05-04 05:10 53.41485 -2.14154 4081 ft 258 kts 52°
2026-05-04 05:10 53.42577 -2.11729 4886 ft 267 kts 52°
2026-05-04 05:11 53.43722 -2.09197 5005 ft 272 kts 51°
2026-05-04 05:11 53.44849 -2.06712 5003 ft 265 kts 51°
2026-05-04 05:11 53.45963 -2.04256 5001 ft 264 kts 51°
2026-05-04 05:11 53.47062 -2.01830 4997 ft 265 kts 52°
2026-05-04 05:12 53.48173 -1.99370 4998 ft 263 kts 51°
2026-05-04 05:12 53.49277 -1.96926 5001 ft 263 kts 51°
2026-05-04 05:12 53.50383 -1.94474 4997 ft 263 kts 52°
2026-05-04 05:12 53.51489 -1.92014 4999 ft 264 kts 52°
2026-05-04 05:13 53.52239 -1.89238 5009 ft 265 kts 78°
2026-05-04 05:13 53.52142 -1.86130 5475 ft 269 kts 105°
2026-05-04 05:13 53.51611 -1.83093 6344 ft 274 kts 104°
2026-05-04 05:13 53.51105 -1.79975 7146 ft 279 kts 105°
2026-05-04 05:14 53.50550 -1.76807 7940 ft 283 kts 107°
2026-05-04 05:14 53.49977 -1.73619 8756 ft 288 kts 107°
2026-05-04 05:14 53.49403 -1.70383 9584 ft 291 kts 107°
2026-05-04 05:14 53.48823 -1.67087 10274 ft 299 kts 107°
2026-05-04 05:15 53.48204 -1.63586 10417 ft 327 kts 107°
2026-05-04 05:15 53.47535 -1.59828 10489 ft 353 kts 107°
2026-05-04 05:15 53.46809 -1.55751 10761 ft 370 kts 107°
2026-05-04 05:15 53.46069 -1.51617 11499 ft 372 kts 108°
2026-05-04 05:16 53.45317 -1.47428 12153 ft 376 kts 108°
2026-05-04 05:16 53.44558 -1.43211 12825 ft 379 kts 108°
2026-05-04 05:16 53.43790 -1.38947 13488 ft 383 kts 108°
2026-05-04 05:16 53.43014 -1.34648 14104 ft 386 kts 108°
2026-05-04 05:17 53.42230 -1.30323 14690 ft 389 kts 108°
2026-05-04 05:17 53.41440 -1.25969 15271 ft 392 kts 108°
2026-05-04 05:17 53.40646 -1.21587 15838 ft 394 kts 108°
2026-05-04 05:17 53.39846 -1.17177 16390 ft 397 kts 108°
2026-05-04 05:18 53.39034 -1.12734 16920 ft 400 kts 108°
2026-05-04 05:18 53.38214 -1.08265 17462 ft 402 kts 108°
2026-05-04 05:18 53.37412 -1.03888 17976 ft 405 kts 108°
2026-05-04 05:18 53.36580 -0.99357 18386 ft 410 kts 108°
2026-05-04 05:19 53.35736 -0.94785 18857 ft 411 kts 108°
2026-05-04 05:19 53.34901 -0.90263 19291 ft 413 kts 108°
2026-05-04 05:19 53.34045 -0.85643 19699 ft 416 kts 108°
2026-05-04 05:19 53.33186 -0.81016 20089 ft 419 kts 108°
2026-05-04 05:20 53.32318 -0.76354 20510 ft 420 kts 108°
2026-05-04 05:20 53.31447 -0.71687 20936 ft 421 kts 108°
2026-05-04 05:20 53.30568 -0.66984 21286 ft 424 kts 108°
2026-05-04 05:20 53.29683 -0.62273 21662 ft 426 kts 108°
2026-05-04 05:21 53.28794 -0.57542 22040 ft 427 kts 108°
2026-05-04 05:21 53.27900 -0.52793 22386 ft 429 kts 108°
2026-05-04 05:21 53.26999 -0.48025 22695 ft 431 kts 108°
2026-05-04 05:21 53.26091 -0.43237 23064 ft 432 kts 108°
2026-05-04 05:22 53.25180 -0.38436 23392 ft 434 kts 108°
2026-05-04 05:22 53.24263 -0.33615 23594 ft 438 kts 109°
2026-05-04 05:22 53.23344 -0.28810 23823 ft 440 kts 109°
2026-05-04 05:22 53.22411 -0.23937 24114 ft 441 kts 108°
2026-05-04 05:23 53.21476 -0.19057 24338 ft 443 kts 109°
2026-05-04 05:23 53.20530 -0.14139 24565 ft 445 kts 109°
2026-05-04 05:23 53.19580 -0.09216 24807 ft 446 kts 109°
2026-05-04 05:23 53.18625 -0.04282 25053 ft 447 kts 109°
2026-05-04 05:24 53.17668 0.00662 25223 ft 450 kts 109°
2026-05-04 05:24 53.16698 0.05650 25371 ft 453 kts 109°
2026-05-04 05:24 53.15736 0.10580 25612 ft 453 kts 109°
2026-05-04 05:24 53.14758 0.15588 25830 ft 455 kts 109°
2026-05-04 05:25 53.13775 0.20611 26039 ft 457 kts 109°
2026-05-04 05:25 53.12782 0.25664 26275 ft 458 kts 109°
2026-05-04 05:25 53.11789 0.30705 26499 ft 459 kts 109°
2026-05-04 05:25 53.10790 0.35766 26714 ft 461 kts 109°
2026-05-04 05:26 53.09784 0.40846 26914 ft 462 kts 109°
2026-05-04 05:26 53.08775 0.45929 27152 ft 463 kts 109°
2026-05-04 05:26 53.07761 0.51029 27346 ft 465 kts 110°
2026-05-04 05:26 53.06740 0.56147 27474 ft 468 kts 110°
2026-05-04 05:27 53.05709 0.61296 27708 ft 469 kts 110°
2026-05-04 05:28 52.98731 0.95829 29138 ft 478 kts 111°
2026-05-04 05:29 52.97238 1.02791 29378 ft 479 kts 114°
2026-05-04 05:29 52.96055 1.07997 29500 ft 483 kts 112°
2026-05-04 05:29 52.94909 1.13228 29745 ft 484 kts 112°
2026-05-04 05:29 52.93733 1.18469 29941 ft 485 kts 113°
2026-05-04 05:31 52.85331 1.55160 31604 ft 488 kts 114°
2026-05-04 05:31 52.84120 1.60414 31831 ft 489 kts 114°
2026-05-04 05:32 52.82906 1.65660 32147 ft 488 kts 114°
2026-05-04 05:32 52.81691 1.70894 32453 ft 488 kts 114°
2026-05-04 05:32 52.80474 1.76128 32788 ft 487 kts 114°
2026-05-04 05:33 52.78034 1.86585 33455 ft 487 kts 114°
2026-05-04 05:33 52.76812 1.91802 33794 ft 486 kts 114°
2026-05-04 05:33 52.75590 1.97006 34098 ft 486 kts 114°
2026-05-04 05:33 52.74368 2.02202 34338 ft 486 kts 114°
2026-05-04 05:34 52.73155 2.07341 34535 ft 487 kts 114°
2026-05-04 05:34 52.71908 2.12611 34818 ft 487 kts 114°
2026-05-04 05:34 52.70691 2.17744 34967 ft 489 kts 114°
2026-05-04 05:35 52.68200 2.28219 34962 ft 487 kts 114°
2026-05-04 05:35 52.65724 2.38570 34960 ft 485 kts 115°
2026-05-04 05:36 52.63238 2.48919 34961 ft 485 kts 115°
2026-05-04 05:36 52.60742 2.59259 34965 ft 488 kts 115°
2026-05-04 05:37 52.58225 2.69643 34959 ft 489 kts 115°
2026-05-04 05:37 52.55712 2.79955 34957 ft 489 kts 115°
2026-05-04 05:38 52.51500 2.95121 34968 ft 487 kts 118°
2026-05-04 05:38 52.48588 3.05168 34950 ft 489 kts 120°
2026-05-04 05:39 52.44153 3.20328 34947 ft 491 kts 120°
2026-05-04 05:40 52.39719 3.35389 34942 ft 488 kts 120°
2026-05-04 05:40 52.37257 3.43722 34943 ft 488 kts 120°
2026-05-04 05:41 52.34284 3.53735 34945 ft 492 kts 120°
2026-05-04 05:41 52.31284 3.63799 34954 ft 493 kts 120°
2026-05-04 05:42 52.28273 3.73859 34949 ft 491 kts 121°
2026-05-04 05:42 52.25287 3.83793 34955 ft 490 kts 121°
2026-05-04 05:43 52.22280 3.93756 34952 ft 489 kts 121°
2026-05-04 05:45 52.10099 4.33697 34942 ft 491 kts 121°
2026-05-04 05:47 51.97756 4.73512 34941 ft 493 kts 122°
2026-05-04 05:47 51.94654 4.83415 34921 ft 492 kts 122°
2026-05-04 05:48 51.91576 4.93202 34944 ft 490 kts 122°
2026-05-04 05:48 51.88463 5.03059 34945 ft 492 kts 122°
2026-05-04 05:49 51.85332 5.12938 34947 ft 492 kts 122°
2026-05-04 05:49 51.82195 5.22793 34950 ft 492 kts 122°
2026-05-04 05:51 51.69606 5.61950 34962 ft 493 kts 122°
2026-05-04 05:52 51.66415 5.71778 34959 ft 491 kts 122°
2026-05-04 05:52 51.63245 5.81502 34944 ft 488 kts 122°
2026-05-04 05:54 51.50580 6.19980 34978 ft 488 kts 121°
2026-05-04 05:55 51.48007 6.30031 34963 ft 487 kts 116°
2026-05-04 05:55 51.45531 6.40080 34962 ft 483 kts 116°
2026-05-04 05:56 51.43055 6.50137 34966 ft 485 kts 116°
2026-05-04 05:56 51.40558 6.60213 34972 ft 487 kts 116°
2026-05-04 05:57 51.38057 6.70275 34957 ft 485 kts 116°
2026-05-04 05:57 51.35556 6.80279 34962 ft 484 kts 117°
2026-05-04 05:58 51.33067 6.90198 34472 ft 482 kts 117°
2026-05-04 05:58 51.31809 6.95190 33720 ft 483 kts 117°
2026-05-04 05:58 51.30553 7.00166 33044 ft 480 kts 117°
2026-05-04 05:59 51.29303 7.05106 32373 ft 479 kts 118°
2026-05-04 05:59 51.27777 7.09786 31683 ft 474 kts 129°
2026-05-04 05:59 51.25748 7.13908 30968 ft 473 kts 140°
2026-05-04 05:59 51.23280 7.17372 30157 ft 470 kts 150°
2026-05-04 06:00 51.20498 7.20032 29299 ft 463 kts 158°
2026-05-04 06:00 51.17618 7.22347 28481 ft 463 kts 158°
2026-05-04 06:00 51.14726 7.24632 27665 ft 463 kts 159°
2026-05-04 06:00 51.11842 7.26893 26859 ft 460 kts 158°
2026-05-04 06:01 51.09015 7.29281 26063 ft 457 kts 157°
2026-05-04 06:01 51.06199 7.31574 25279 ft 453 kts 158°
2026-05-04 06:03 50.87345 7.47043 19924 ft 417 kts 156°
2026-05-04 06:03 50.84784 7.49139 19357 ft 410 kts 156°
2026-05-04 06:05 50.67206 7.63435 16608 ft 402 kts 156°
2026-05-04 06:05 50.62250 7.67445 15845 ft 398 kts 156°
2026-05-04 06:05 50.59794 7.69429 15464 ft 395 kts 156°
2026-05-04 06:06 50.57359 7.71393 15098 ft 393 kts 156°
2026-05-04 06:06 50.54931 7.73347 14731 ft 391 kts 156°
2026-05-04 06:06 50.52510 7.75293 14373 ft 390 kts 156°
2026-05-04 06:06 50.50099 7.77232 13988 ft 389 kts 156°
2026-05-04 06:07 50.47692 7.79164 13603 ft 388 kts 156°
2026-05-04 06:07 50.45293 7.81088 13226 ft 385 kts 156°
2026-05-04 06:07 50.42977 7.83167 12846 ft 386 kts 146°
2026-05-04 06:07 50.40905 7.85855 12499 ft 385 kts 144°
2026-05-04 06:08 50.38781 7.88418 12127 ft 384 kts 146°
2026-05-04 06:08 50.36667 7.90971 11756 ft 382 kts 144°
2026-05-04 06:08 50.34631 7.93518 11396 ft 375 kts 144°
2026-05-04 06:08 50.32582 7.96083 11058 ft 379 kts 144°
2026-05-04 06:09 50.30518 7.98629 10699 ft 376 kts 145°
2026-05-04 06:09 50.28467 8.01147 10344 ft 374 kts 145°
2026-05-04 06:11 50.16837 8.23082 10002 ft 377 kts 131°
2026-05-04 06:11 50.15230 8.26303 10003 ft 377 kts 131°
2026-05-04 06:13 50.13199 8.52234 10013 ft 341 kts 69°
2026-05-04 06:14 50.17749 8.71328 8937 ft 305 kts 70°
2026-05-04 06:14 50.18484 8.74430 8477 ft 303 kts 70°
2026-05-04 06:15 50.19210 8.77494 8042 ft 297 kts 70°
2026-05-04 06:15 50.19920 8.80497 7336 ft 295 kts 70°
2026-05-04 06:15 50.20623 8.83489 6719 ft 291 kts 70°
2026-05-04 06:15 50.21310 8.86413 6374 ft 277 kts 70°
2026-05-04 06:16 50.21952 8.89137 6044 ft 264 kts 70°
2026-05-04 06:16 50.22584 8.91838 5498 ft 263 kts 70°
2026-05-04 06:16 50.23209 8.94508 5042 ft 259 kts 70°
2026-05-04 06:16 50.23815 8.97094 4981 ft 252 kts 70°
2026-05-04 06:17 50.24407 8.99621 4975 ft 242 kts 70°
2026-05-04 06:17 50.24631 9.02160 4960 ft 235 kts 103°
2026-05-04 06:17 50.23831 9.04300 4964 ft 228 kts 138°
2026-05-04 06:17 50.22507 9.05576 4969 ft 224 kts 165°
2026-05-04 06:18 50.20983 9.05775 4971 ft 219 kts 191°
2026-05-04 06:18 50.19611 9.04912 4970 ft 215 kts 216°
2026-05-04 06:18 50.18571 9.03237 4975 ft 214 kts 231°
2026-05-04 06:20 50.13197 8.89478 4997 ft 215 kts 249°
2026-05-04 06:20 50.12676 8.87293 4996 ft 216 kts 249°
2026-05-04 06:21 50.10614 8.78651 3988 ft 206 kts 249°
2026-05-04 06:21 50.10123 8.76589 3699 ft 200 kts 249°
2026-05-04 06:22 50.09654 8.74620 3427 ft 186 kts 249°
2026-05-04 06:22 50.09213 8.72763 3154 ft 180 kts 249°
2026-05-04 06:25 50.04225 8.51875 359 ft 103 kts 250°
2026-05-04 06:25 50.04027 8.51120 359 ft 55 kts 234°
2026-05-04 06:26 50.03878 8.50886 361 ft 20 kts 219°
2026-05-04 06:26 50.03802 8.50843 358 ft 7 kts 150°
2026-05-04 06:26 50.03781 8.50898 358 ft 4 kts 93°
2026-05-04 06:26 50.03794 8.50979 359 ft 11 kts 74°
2026-05-04 06:27 50.04030 8.51972 359 ft 34 kts 69°
2026-05-04 06:28 50.04119 8.52336 358 ft 38 kts 70°
2026-05-04 06:28 50.04240 8.52841 354 ft 33 kts 69°
2026-05-04 06:28 50.04317 8.53157 357 ft 31 kts 69°
2026-05-04 06:28 50.04390 8.53464 359 ft 29 kts 73°
2026-05-04 06:29 50.04414 8.53775 355 ft 29 kts 84°
2026-05-04 06:29 50.04435 8.54081 354 ft 28 kts 84°
2026-05-04 06:29 50.04451 8.54383 353 ft 28 kts 85°
2026-05-04 06:29 50.04409 8.54644 361 ft 24 kts 129°
2026-05-04 06:30 50.04276 8.54795 356 ft 24 kts 160°
2026-05-04 06:30 50.04122 8.54882 359 ft 23 kts 159°
2026-05-04 06:30 50.04026 8.54949 361 ft 11 kts 128°
2026-05-04 06:30 50.04028 8.55056 359 ft 12 kts 71°
2026-05-04 06:31 50.04060 8.55191 354 ft 16 kts 70°
2026-05-04 06:31 50.04103 8.55369 358 ft 19 kts 69°
2026-05-04 06:31 50.04154 8.55584 359 ft 23 kts 70°
2026-05-04 06:31 50.04212 8.55828 359 ft 24 kts 69°
2026-05-04 06:32 50.04266 8.55964 357 ft 10 kts 18°
2026-05-04 06:33 50.04648 8.56188 358 ft 4 kts 341°
2026-05-04 06:34 50.04684 8.56168 361 ft 6 kts 340°
2026-05-04 06:34 50.04700 8.56159 361 ft 0 kts 340°